This demonstration page uses our WeatherBlox Daily Observations layout. Learn more.

40.92945, -100.16068

Hourly Observations for June 5, 2017

Temp ( °F °C ) Dew Point ( °F °C ) Humidity (%) Winds ( mph kmh ) Pressure ( in mb ) Visibility ( mi km ) Precip ( " mm )
12:15 am 00:15 Clear 68 20.1 60 15.4 74 74 Calm 29.83 1010 10 16.0934 0 0
12:35 am 00:35 Clear 68 19.9 60 15.3 75 75 Calm 29.83 1010 10 16.0934 0 0
12:55 am 00:55 Clear 67 19.4 60 15.8 80 80 Calm 29.83 1010 10 16.0934 0 0
1:15 am 01:15 Clear 66 19 60 15.7 81 81 Calm 29.83 1010 10 16.0934 0 0
1:35 am 01:35 Clear 65 18.3 60 15.8 85 85 NNW 3 6 29.88 1012 10 16.0934 0 0
1:55 am 01:55 Clear 65 18.1 59 15.1 83 83 N 6 9 29.85 1011 10 16.0934 0 0
2:15 am 02:15 Clear 64 17.6 59 15 85 85 Calm 29.85 1011 10 16.0934 0 0
2:35 am 02:35 Clear 64 17.5 59 15 85 85 Calm 29.85 1011 10 16.0934 0 0
2:55 am 02:55 Clear 62 16.8 58 14.5 86 86 Calm 29.88 1012 10 16.0934 0 0
3:15 am 03:15 Clear 63 17 57 13.7 81 81 Calm 29.88 1012 10 16.0934 0 0
3:35 am 03:35 Clear 62 16.6 56 13.6 83 83 Calm 29.85 1011 10 16.0934 0 0
3:55 am 03:55 Clear 61 16.1 57 13.8 86 86 Calm 29.85 1011 10 16.0934 0 0
4:15 am 04:15 Clear 61 16 57 13.8 87 87 WNW 3 6 29.85 1011 10 16.0934 0 0
4:35 am 04:35 Clear 60 15.8 56 13.5 86 86 WNW 3 6 29.85 1011 10 16.0934 0 0
4:55 am 04:55 Clear 60 15.8 56 13.4 86 86 WNW 3 6 29.85 1011 10 16.0934 0 0
5:15 am 05:15 Clear 60 15.6 56 13.2 86 86 W 5 7 29.85 1011 10 16.0934 0 0
5:35 am 05:35 Clear 60 15.4 56 13.5 89 89 W 6 9 29.88 1012 10 16.0934 0 0
5:55 am 05:55 Clear 60 15.3 57 13.7 90 90 W 5 7 29.88 1012 10 16.0934 0 0
6:15 am 06:15 Sunny 59 15.2 56 13.6 90 90 W 3 6 29.91 1013 10 16.0934 0 0
6:35 am 06:35 Sunny 59 15.2 57 13.8 91 91 WNW 5 7 29.91 1013 10 16.0934 0 0
6:55 am 06:55 Sunny 60 15.5 57 14.1 91 91 WNW 5 7 29.91 1013 10 16.0934 0 0
7:15 am 07:15 Sunny 62 16.4 58 14.6 89 89 WNW 5 7 29.88 1012 10 16.0934 0 0
7:35 am 07:35 Sunny 64 17.5 59 14.9 85 85 NW 5 7 29.88 1012 10 16.0934 0 0
7:55 am 07:55 Sunny 65 18.4 60 15.5 83 83 NW 6 9 29.88 1012 10 16.0934 0 0
8:15 am 08:15 Sunny 67 19.5 60 15.5 78 78 NW 5 7 29.85 1011 10 16.0934 0 0
8:35 am 08:35 Sunny 69 20.5 61 15.9 75 75 WNW 6 9 29.88 1012 10 16.0934 0 0
8:55 am 08:55 Sunny 72 22.1 61 16 68 68 WNW 6 9 29.88 1012 10 16.0934 0 0
9:15 am 09:15 Sunny 75 23.8 61 16.3 63 63 WNW 6 9 29.85 1011 10 16.0934 0 0
9:35 am 09:35 Sunny 77 25.1 60 15.6 56 56 NW 7 11 29.85 1011 10 16.0934 0 0
9:55 am 09:55 Sunny 79 26 60 15.7 53 53 NW 8 13 29.85 1011 10 16.0934 0 0
10:15 am 10:15 Sunny 80 26.8 60 15.8 51 51 NW 8 13 29.83 1010 10 16.0934 0 0
10:35 am 10:35 Sunny 82 27.6 60 15.7 48 48 WNW 6 9 29.83 1010 10 16.0934 0 0
10:55 am 10:55 Sunny 83 28.4 59 15.2 45 45 WNW 5 7 29.83 1010 10 16.0934 0 0
11:15 am 11:15 Sunny 84 28.8 59 15 43 43 Calm 29.83 1010 10 16.0934 0 0
11:35 am 11:35 Sunny 85 29.5 56 13.6 38 38 WSW 5 7 29.83 1010 10 16.0934 0 0
11:55 am 11:55 Sunny 85 29.6 54 12.3 34 34 Calm 29.83 1010 10 16.0934 0 0
12:15 pm 12:15 Sunny 86 30 55 12.7 35 35 E 3 6 29.77 1008 10 16.0934 0 0
12:35 pm 12:35 Partly Cloudy 87 30.5 55 13 34 34 SSW 6 9 29.77 1008 10 16.0934 0 0
12:55 pm 12:55 Sunny 87 30.3 49 9.6 28 28 Calm 29.77 1008 10 16.0934 0 0
1:15 pm 13:15 Sunny 87 30.5 50 10.1 28 28 Calm 29.77 1008 10 16.0934 0 0
1:35 pm 13:35 Sunny 87 30.7 48 8.9 26 26 Calm 29.77 1008 10 16.0934 0 0
1:55 pm 13:55 Sunny 87 30.7 51 10.4 28 28 E 5 7 29.77 1008 10 16.0934 0 0
2:15 pm 14:15 Partly Cloudy 88 31 52 10.9 29 29 NNE 3 6 29.77 1008 10 16.0934 0 0
2:35 pm 14:35 Partly Cloudy 87 30.7 51 10.7 29 29 Calm 29.77 1008 10 16.0934 0 0
2:55 pm 14:55 Sunny 88 31.1 53 11.8 31 31 NE 5 7 29.74 1007 10 16.0934 0 0
3:15 pm 15:15 Partly Cloudy 89 31.5 51 10.6 28 28 Calm 29.74 1007 10 16.0934 0 0
3:35 pm 15:35 Partly Cloudy 89 31.5 52 10.9 28 28 Calm 29.74 1007 10 16.0934 0 0
3:55 pm 15:55 Partly Cloudy 89 31.5 55 13 32 32 ESE 7 11 29.74 1007 10 16.0934 0 0
4:15 pm 16:15 Partly Cloudy 89 31.8 52 11 28 28 Calm 29.74 1007 10 16.0934 0 0
4:35 pm 16:35 Partly Cloudy 87 30.4 56 13.6 36 36 ENE 5 7 29.74 1007 10 16.0934 0 0
4:55 pm 16:55 Partly Cloudy 89 31.6 54 12.1 30 30 NE 3 6 29.74 1007 10 16.0934 0 0
5:15 pm 17:15 Mostly Cloudy 89 31.7 53 11.8 29 29 Calm 29.74 1007 10 16.0934 0 0
5:35 pm 17:35 Mostly Cloudy 86 30.2 60 15.3 40 40 Calm 29.74 1007 10 16.0934 0 0
5:55 pm 17:55 Partly Cloudy 87 30.5 58 14.5 38 38 Calm 29.74 1007 10 16.0934 0 0
6:15 pm 18:15 Partly Cloudy 87 30.8 55 12.8 33 33 Calm 29.74 1007 10 16.0934 0 0
6:35 pm 18:35 Mostly Cloudy 89 31.4 57 14 35 35 Calm 29.74 1007 10 16.0934 0 0
6:55 pm 18:55 Cloudy 85 29.7 62 16.4 45 45 NE 5 7 29.74 1007 10 16.0934 0 0
7:15 pm 19:15 Mostly Cloudy 83 28.3 64 17.8 53 53 ENE 6 9 29.77 1008 10 16.0934 0 0
7:35 pm 19:35 Partly Cloudy 84 28.9 65 18.1 52 52 Calm 29.77 1008 10 16.0934 0 0
7:55 pm 19:55 Partly Cloudy 86 30.1 57 14 37 37 Calm 29.74 1007 10 16.0934 0 0
8:15 pm 20:15 Partly Cloudy 86 30 52 11.3 31 31 Calm 29.74 1007 10 16.0934 0 0
8:35 pm 20:35 Sunny 85 29.5 51 10.8 31 31 Calm 29.77 1008 10 16.0934 0 0
8:55 pm 20:55 Sunny 83 28.4 57 13.7 40 40 Calm 29.8 1009 10 16.0934 0 0
9:15 pm 21:15 Clear 81 27.3 57 14.1 44 44 Calm 29.8 1009 10 16.0934 0 0
9:35 pm 21:35 Partly Cloudy 80 26.6 56 13.6 45 45 Calm 29.8 1009 10 16.0934 0 0
9:55 pm 21:55 Clear 75 24 62 16.6 63 63 E 5 7 29.83 1010 10 16.0934 0 0
10:15 pm 22:15 Partly Cloudy 74 23.3 61 16.3 65 65 E 5 7 29.83 1010 10 16.0934 0 0
10:35 pm 22:35 Partly Cloudy 72 22.3 61 16.3 69 69 E 6 9 29.85 1011 10 16.0934 0 0
10:55 pm 22:55 Partly Cloudy 73 22.5 61 15.9 66 66 E 5 7 29.88 1012 10 16.0934 0 0
11:15 pm 23:15 Mostly Cloudy 75 23.9 59 14.9 57 57 Calm 29.85 1011 10 16.0934 0 0
11:35 pm 23:35 Partly Cloudy 75 23.7 60 15.3 59 59 Calm 29.85 1011 10 16.0934 0 0
11:55 pm 23:55 Partly Cloudy 72 22 62 16.6 72 72 Calm 29.88 1012 10 16.0934 0 0

Powered by AerisWeather